GFSSW_500_rhum_108.txt.gz
RH
7 7 4 3 3 3 3 3 4 4 3 3 4 4 4 4 10 31 44 49 56 57 57 54 52 48 43 43 44 44 37 35 39 39 38 37 37 32 31 32 33 33 28 28 28
3 4 4 4 4 4 4 5 5 6 6 5 5 5 5 4 4 10 30 38 45 51 55 62 60 58 53 48 44 45 41 42 42 44 41 38 37 37 35 36 39 42 37 26 28
5 6 6 7 7 8 7 7 7 7 6 6 6 6 5 5 4 6 11 14 21 33 37 51 58 62 63 62 56 49 47 47 43 47 45 44 41 39 38 36 45 43 41 37 22
6 8 9 9 10 12 11 9 8 8 8 7 7 6 6 6 6 6 5 5 7 11 18 31 52 59 59 56 65 60 60 58 56 54 51 54 54 50 42 40 48 45 46 44 38
13 14 14 15 15 20 15 15 13 12 12 10 10 10 9 9 8 8 6 5 4 5 6 8 21 49 53 48 48 51 60 59 61 58 62 58 58 58 50 55 52 49 50 50 46
17 17 16 16 29 21 15 14 14 14 13 13 12 11 11 11 11 11 9 8 7 5 5 4 5 8 16 33 36 34 35 40 48 52 60 62 59 54 60 62 55 53 50 52 50
18 17 16 16 15 14 14 14 13 12 12 12 10 11 11 11 12 14 13 11 10 8 7 6 4 4 6 11 18 18 17 22 37 48 51 54 46 57 60 63 60 63 64 58 55
19 18 18 17 16 14 12 12 12 12 12 12 12 12 11 11 12 12 14 12 10 10 10 8 6 5 5 5 6 7 7 16 24 37 45 44 43 40 48 52 57 59 60 58 54
18 17 16 21 15 16 16 12 14 14 13 15 16 16 15 14 14 14 14 15 11 11 10 10 9 7 6 6 7 10 6 7 19 20 39 43 42 34 41 52 59 62 59 56 54
24 25 24 30 28 26 25 28 28 25 22 20 17 18 17 15 14 14 13 12 11 13 13 12 14 10 7 6 20 26 6 9 12 28 38 26 28 28 43 49 59 58 56 52 50
38 36 34 34 34 32 30 27 23 25 23 19 22 20 17 15 14 12 11 10 14 15 23 32 22 11 20 17 42 17 9 8 24 43 33 33 31 39 47 48 50 49 50 52 50
39 38 36 28 24 16 17 18 14 16 18 18 14 16 16 13 11 8 11 14 24 32 39 46 48 38 28 35 25 16 9 12 27 52 49 48 41 40 44 47 46 46 42 40 39
29 25 23 20 17 16 13 11 10 9 8 8 9 8 8 8 9 7 14 21 22 39 43 35 76 79 82 52 29 20 14 20 38 50 59 54 39 45 50 53 52 46 42 37 33
13 11 11 9 9 8 8 7 6 6 18 8 7 8 10 12 14 17 19 46 74 64 79 77 95 90 79 86 58 36 63 64 63 79 75 43 46 33 44 46 42 38 35 32 29
6 7 6 4 5 5 7 6 7 16 41 57 20 20 24 47 48 39 55 68 45 50 98 96 84 85 78 73 100 87 85 87 82 78 74 69 63 53 47 43 38 34 31 29 26
4 4 4 5 8 9 9 8 12 39 87 34 61 56 75 70 50 67 52 50 84 94 83 90 91 92 85 96 100 100 100 100 100 100 87 70 67 53 50 48 49 43 37 33 29
3 3 5 7 8 9 7 9 24 88 38 57 43 72 88 67 80 72 64 90 92 95 81 97 99 100 100 100 100 100 100 87 69 73 69 66 64 56 50 47 48 42 29 25 22
2 4 5 5 8 8 13 24 42 26 37 63 92 83 74 82 88 95 83 82 99 99 100 100 100 100 99 99 97 100 100 100 100 100 100 68 58 60 58 59 49 33 25 19 14
3 4 4 3 5 10 22 100 62 57 62 79 100 94 76 71 82 77 70 60 60 69 100 100 100 96 100 100 93 96 99 98 93 93 91 83 74 68 56 43 33 24 18 13 8
3 4 3 5 10 30 36 100 69 100 47 55 70 65 76 65 74 70 84 79 70 82 90 100 100 100 100 100 100 100 99 99 100 100 97 74 49 38 38 32 21 14 10 8 7
4 9 12 31 62 49 50 99 83 48 51 77 83 70 69 100 100 91 90 79 95 98 96 100 100 99 100 100 100 100 99 100 100 86 40 28 31 28 22 14 9 7 7 8 7
3 9 29 81 78 100 78 63 52 82 100 99 99 82 96 100 100 96 82 96 100 100 100 100 100 100 99 100 100 100 80 39 20 14 14 12 15 14 11 8 7 7 6 6 5
7 13 42 79 74 72 87 87 98 100 85 76 62 85 100 100 100 100 100 100 100 100 100 100 100 99 94 80 87 74 24 13 12 11 11 9 12 8 7 5 6 5 4 3 3
50 71 100 92 96 76 89 100 99 100 100 100 100 98 94 94 100 100 100 100 100 100 100 100 95 88 71 72 26 12 12 10 8 8 6 8 6 6 6 4 4 3 3 3 3
95 100 100 99 99 100 100 100 100 100 100 100 98 94 94 100 100 100 100 100 100 100 99 96 94 69 21 12 11 11 10 7 6 5 6 6 5 4 4 4 3 3 4 3 3
100 98 98 100 91 100 100 100 100 100 100 100 99 89 96 100 100 100 100 100 100 99 91 67 31 16 13 12 11 10 7 6 5 5 4 4 3 5 5 5 7 7 6 6 11
100 98 100 100 100 100 100 100 100 100 98 97 94 98 100 100 100 100 100 88 68 56 28 15 16 15 15 9 8 6 6 7 6 5 5 5 10 18 16 12 8 8 7 14 98

GFSSW_500_rhum_114.txt.gz
RH
20 24 28 29 30 30 29 28 28 23 22 18 13 4 4 4 4 4 4 4 5 6 12 22 31 37 43 50 54 53 49 48 49 52 52 49 39 35 34 32 36 31 30 35 31
29 32 32 31 29 30 30 27 20 10 6 3 3 3 5 5 5 5 5 5 5 6 6 6 6 5 7 14 23 36 40 53 59 55 54 48 52 48 45 41 37 37 34 31 37
34 37 35 31 29 28 26 18 6 4 4 4 4 4 5 6 6 6 7 7 7 7 8 8 8 8 8 5 5 7 9 36 59 62 60 57 62 55 51 45 45 42 39 40 30
37 36 32 25 22 19 13 6 4 5 5 6 7 8 8 8 10 9 11 10 10 10 10 10 10 10 10 11 10 9 8 6 8 44 50 45 45 62 64 61 60 54 47 42 47
29 23 14 11 8 5 5 4 5 6 8 9 10 10 15 15 15 11 13 11 10 10 10 10 10 10 10 10 10 10 11 10 9 6 6 8 19 38 40 54 61 63 65 64 61
12 9 8 6 6 5 6 5 10 10 17 17 14 15 19 29 24 18 13 12 12 12 12 12 11 11 11 11 11 11 11 11 11 10 8 7 6 6 15 18 20 30 45 50 56
11 9 8 8 10 10 30 21 32 19 19 20 16 16 17 20 20 22 18 14 13 12 13 16 16 15 15 14 13 12 12 12 11 11 10 10 8 8 8 9 7 8 13 34 46
28 40 32 42 16 21 33 37 26 30 18 16 17 17 21 21 18 16 16 15 13 12 12 17 19 18 18 17 16 15 13 12 14 14 12 10 7 9 8 8 8 7 13 16 23
66 57 53 30 36 37 44 22 29 24 30 35 24 22 21 26 21 19 18 16 15 18 19 20 21 19 17 13 9 9 10 11 10 10 15 11 7 7 7 7 6 7 8 23 33
49 49 55 42 34 30 32 24 23 26 32 34 39 35 34 30 24 18 15 14 19 22 20 18 14 11 10 10 8 10 10 6 5 15 100 87 10 10 7 12 6 6 15 18 50
55 43 46 42 45 51 50 43 34 35 28 38 48 50 46 33 22 21 22 24 22 16 14 12 10 9 9 10 10 9 8 9 6 7 54 86 55 13 9 10 10 9 12 22 50
60 49 37 41 51 64 75 54 46 45 37 36 39 25 26 29 28 25 18 16 12 11 10 9 8 7 8 9 17 18 15 12 16 14 26 45 92 30 46 21 23 37 45 32 72
64 62 65 60 52 47 48 48 49 48 52 44 35 30 30 25 19 14 11 11 11 10 10 8 7 8 8 8 19 19 46 36 38 29 32 64 88 57 38 49 52 46 51 85 77
64 63 61 58 57 52 50 36 31 20 30 39 39 31 25 16 14 13 14 14 13 13 12 10 10 14 15 14 58 100 51 100 99 100 97 65 96 99 37 58 83 58 100 71 35
57 57 53 48 52 51 37 16 13 10 16 26 24 22 19 14 12 12 12 11 10 11 16 8 14 21 42 36 50 98 100 95 69 65 100 96 98 78 92 98 94 100 86 61 41
27 30 30 23 23 23 13 8 6 12 12 18 18 16 14 14 15 16 13 11 11 15 36 32 56 56 73 69 73 62 52 71 80 96 96 53 92 78 74 100 100 99 89 60 48
19 13 13 12 14 13 7 5 19 8 12 14 17 16 15 17 14 8 10 19 24 44 49 75 71 74 96 66 86 74 77 100 98 99 69 98 100 76 98 92 100 93 98 49 79
11 8 9 10 9 7 5 5 5 30 10 12 11 11 8 9 10 24 22 22 52 58 72 95 63 86 98 77 63 99 100 100 100 100 97 99 87 100 80 100 100 99 91 76 90
6 6 6 5 5 4 4 4 4 16 11 8 17 27 23 13 32 49 33 32 81 76 73 93 83 65 66 59 55 78 76 100 94 77 86 72 92 100 100 100 100 100 100 100 100
4 4 4 4 4 5 32 18 7 7 9 9 56 96 55 36 100 85 62 66 53 67 93 78 88 71 83 62 75 81 98 100 100 98 100 97 100 100 96 100 100 99 98 97 100
4 6 5 4 5 32 48 24 13 23 22 11 22 82 46 61 100 80 99 87 49 66 53 99 97 82 92 65 99 100 100 95 99 99 100 97 98 86 98 100 100 100 100 96 97
5 11 11 7 27 28 15 18 18 19 43 19 12 11 35 78 96 100 99 80 47 84 86 98 100 100 97 100 95 100 93 82 82 79 98 100 98 94 100 100 100 97 84 97 43
6 14 17 15 33 31 18 25 20 30 25 12 19 43 97 100 97 100 92 68 100 96 96 92 91 100 98 98 98 88 92 100 99 100 94 100 100 100 98 100 96 85 60 38 18
42 46 37 35 34 44 44 44 41 39 15 14 70 100 100 90 84 55 67 85 99 100 98 99 99 100 100 100 100 99 74 79 96 100 100 100 100 100 95 95 67 43 26 14 9
41 63 48 42 47 39 40 46 75 66 24 76 100 100 100 89 98 95 98 88 100 100 100 96 97 100 93 98 100 82 88 100 100 95 95 63 44 31 24 17 12 13 9 9 9
26 25 43 44 36 80 57 76 61 62 100 100 100 94 95 100 100 97 86 93 100 99 100 93 85 77 76 90 100 100 96 90 78 98 36 12 14 9 8 9 8 8 6 6 5
23 22 19 32 33 98 79 76 62 27 54 100 100 100 100 100 89 85 99 94 96 92 88 84 95 94 100 100 96 86 79 85 63 19 14 13 12 13 9 7 6 5 5 4 4

GFSSW_500_rhum_117.txt.gz
RH
7 8 9 14 18 21 25 29 29 28 30 28 28 25 20 18 8 5 4 6 5 5 5 9 17 22 26 31 36 43 41 52 56 57 54 50 40 36 32 34 37 34 36 42 36
9 12 12 14 19 21 28 30 30 29 30 30 25 16 9 6 4 5 4 4 5 5 6 6 7 6 6 8 7 6 8 9 21 42 52 60 58 53 50 46 44 44 39 37 40
14 16 18 21 23 25 29 33 32 30 29 26 15 6 4 4 4 5 6 6 6 7 9 9 10 10 9 9 10 10 8 9 8 6 10 28 56 67 69 64 64 54 48 42 40
26 27 25 30 30 29 32 35 33 27 22 13 6 4 4 5 9 7 7 8 9 10 12 11 11 10 10 10 11 9 10 9 9 10 10 9 7 11 23 42 52 61 61 59 56
38 38 37 36 37 35 34 32 25 18 11 6 4 4 6 7 14 14 11 13 13 13 12 12 12 11 11 12 12 12 11 10 11 11 11 12 11 11 8 7 7 19 34 35 35
41 38 37 36 33 29 24 18 10 6 5 5 4 6 7 11 15 18 15 20 22 43 34 12 12 11 11 12 12 14 12 12 13 14 14 13 12 12 12 12 11 9 8 10 7
29 29 20 17 14 16 26 12 7 6 6 17 12 16 19 16 20 21 16 18 19 21 18 17 16 15 14 13 13 15 16 15 15 16 16 22 11 14 16 14 13 11 9 8 8
62 32 32 20 58 39 14 16 24 23 29 23 36 38 47 28 18 18 16 17 19 24 22 19 18 18 15 15 16 17 17 16 15 13 11 24 9 11 11 10 11 10 8 8 8
34 60 60 66 40 50 48 46 52 48 29 29 37 35 30 28 27 24 22 22 24 26 26 21 18 14 14 18 18 18 16 13 11 9 10 27 5 4 4 4 4 5 6 6 12
67 87 90 56 53 65 61 55 55 53 37 30 29 28 28 26 29 32 35 34 37 42 34 30 22 20 22 17 12 11 10 8 7 7 10 9 9 6 6 8 6 5 5 10 27
52 54 76 92 80 74 69 60 50 47 44 40 39 45 52 36 31 34 31 34 31 32 29 26 24 20 13 11 10 10 9 10 10 8 8 6 9 16 33 49 27 21 12 9 77
94 81 94 71 77 74 64 69 62 43 43 51 52 49 55 55 46 49 44 34 30 29 21 16 16 11 11 11 12 12 11 11 10 9 9 8 7 6 38 63 83 78 82 79 100
93 93 93 94 85 88 85 74 73 74 57 40 48 45 45 44 41 44 43 34 27 22 16 13 14 14 13 13 13 11 10 10 11 11 8 11 9 8 13 27 36 46 69 70 100
75 85 94 92 80 78 74 81 76 72 58 38 43 39 38 35 31 29 31 27 21 17 15 15 14 15 14 13 16 11 20 53 47 36 24 29 28 46 38 34 50 80 100 100 100
82 72 64 66 68 67 60 59 59 76 53 40 34 32 30 29 24 22 19 16 14 14 15 15 16 14 11 10 16 21 34 54 64 77 100 62 82 41 38 46 94 100 97 98 96
94 89 83 77 81 76 42 24 36 47 44 39 37 31 26 24 20 16 18 19 17 16 15 11 11 10 18 29 47 55 62 66 89 95 72 29 87 40 58 80 87 95 92 98 99
76 82 86 71 64 64 30 15 13 39 34 30 29 28 31 31 28 21 16 13 12 9 9 14 13 27 34 56 55 68 94 80 55 76 63 71 50 42 64 76 84 58 65 98 100
21 27 34 58 63 64 28 11 18 44 48 44 35 32 35 25 23 20 13 10 9 14 19 26 37 60 68 75 82 82 90 77 70 70 59 70 46 61 84 67 92 100 63 64 93
17 17 17 16 15 14 10 7 33 35 26 17 7 7 8 11 14 15 26 17 21 41 42 48 61 59 63 76 76 64 75 100 69 69 60 54 62 83 88 100 86 99 98 90 87
12 12 13 12 10 8 12 9 29 22 9 5 5 6 6 10 32 43 17 35 52 56 81 75 70 48 47 58 78 76 87 86 82 85 89 81 82 83 100 98 99 100 100 98 100
9 9 10 8 8 8 14 20 24 15 16 23 25 12 9 11 16 30 26 45 100 96 76 62 69 62 72 83 89 88 90 100 100 99 100 81 90 70 82 98 100 100 92 86 75
10 9 9 8 16 37 37 20 13 10 9 25 22 20 32 23 19 17 20 98 97 61 63 78 81 82 76 91 86 87 85 100 100 98 88 84 73 89 77 78 72 64 64 60 73
20 13 9 8 22 14 8 9 20 12 16 21 23 28 47 43 21 20 47 68 86 93 84 92 92 95 92 92 89 97 95 100 100 95 81 90 83 99 98 98 84 57 41 56 93
20 24 14 10 10 10 13 18 10 19 25 28 26 51 74 50 19 29 69 77 58 69 80 85 90 95 100 100 100 99 94 88 86 93 85 95 94 100 97 81 80 75 60 57 64
44 53 29 12 9 7 20 19 23 23 32 43 45 52 52 20 39 87 100 76 83 98 83 78 93 100 100 100 100 100 96 85 83 97 98 99 100 97 95 80 66 64 58 47 30
32 35 77 46 24 29 29 29 19 30 50 42 57 57 89 38 90 100 100 92 98 100 98 93 100 98 97 99 100 100 100 93 98 100 100 99 82 91 78 75 67 61 28 10 12
31 25 55 74 58 61 45 39 50 100 89 57 57 98 94 70 100 96 100 95 97 100 98 96 100 92 90 93 82 75 84 99 100 99 95 93 91 77 31 23 16 12 12 10 8

GFSSW_500_rhum_123.txt.gz
RH
12 12 11 11 10 8 7 6 6 6 6 7 7 8 12 19 22 21 26 30 29 22 13 6 6 6 6 10 26 37 31 20 29 49 49 48 43 43 42 43 45 46 45 42 41
8 9 8 8 8 6 6 6 6 6 7 7 8 10 13 19 27 27 29 31 28 15 6 4 4 5 5 6 6 7 8 10 9 10 10 17 31 40 40 43 51 51 53 52 51
6 6 6 6 6 6 6 7 7 7 8 9 10 15 18 24 30 30 31 27 20 10 4 5 4 5 6 8 8 9 9 10 11 11 11 11 11 10 8 9 9 11 21 44 35
8 7 6 6 7 6 7 8 9 11 11 10 13 19 26 33 34 28 25 20 12 7 5 6 5 6 7 10 11 11 12 11 12 11 11 12 14 12 12 12 11 10 10 9 10
14 13 14 10 15 19 10 8 10 12 16 16 19 30 31 36 33 29 15 10 7 6 9 8 6 7 8 10 12 12 15 15 14 14 14 13 13 13 14 16 14 13 12 11 11
55 51 46 27 48 30 21 17 16 18 21 23 26 36 36 22 25 19 11 9 6 7 10 13 9 8 11 15 17 23 35 35 26 19 18 17 15 14 17 18 17 16 16 16 15
78 71 68 66 65 51 40 38 36 37 34 36 38 36 27 20 16 21 15 7 12 16 15 12 15 16 21 29 32 25 21 24 33 38 26 23 20 16 16 16 17 18 18 16 14
87 84 73 81 82 75 59 47 50 48 44 42 45 46 38 38 36 23 17 8 15 28 34 34 28 24 22 20 23 32 35 29 32 34 30 34 28 24 19 18 16 15 12 10 9
79 78 74 75 77 76 79 72 64 59 57 66 56 60 57 51 44 30 34 43 21 22 31 36 42 42 39 41 39 32 34 36 35 30 30 36 30 29 27 20 14 11 9 10 11
88 80 74 70 88 93 88 77 68 65 63 69 63 57 57 50 48 46 46 40 35 32 31 32 31 32 44 38 29 30 34 33 34 36 42 43 34 33 28 18 12 10 11 12 11
79 76 73 75 74 66 70 70 58 53 53 52 49 55 67 61 56 52 49 48 44 42 43 44 46 48 50 46 41 39 38 34 30 28 27 26 23 22 17 13 12 13 14 14 13
82 85 79 82 84 84 78 70 63 56 50 58 62 51 59 52 47 62 52 51 56 52 49 48 44 46 44 38 38 40 37 34 29 22 20 19 18 16 14 15 14 14 13 12 11
86 85 81 85 92 87 88 77 70 67 49 50 62 54 58 58 54 66 50 51 51 52 50 42 40 42 37 31 30 33 32 30 25 21 18 17 16 15 15 14 13 12 11 11 14
92 87 80 81 84 100 99 88 79 74 60 41 51 51 55 60 63 57 50 43 44 44 37 31 33 30 28 25 22 21 20 19 19 20 19 18 15 14 14 14 16 20 27 34 32
96 88 87 84 81 100 100 97 88 83 68 46 38 37 40 44 43 42 42 41 40 38 36 29 28 24 22 19 20 22 22 21 19 16 13 12 35 10 12 19 23 22 27 30 25
96 92 92 95 96 100 100 95 97 94 62 50 43 48 49 50 48 48 46 44 43 40 36 30 28 28 28 26 23 19 16 14 13 13 10 13 64 24 38 34 27 24 23 26 35
96 94 97 100 100 100 100 100 96 76 52 55 54 52 52 52 50 50 50 46 38 34 33 34 33 28 25 22 18 16 18 19 22 37 40 45 46 45 34 32 37 35 37 33 26
74 82 78 74 71 87 79 97 92 55 56 68 76 72 60 59 57 62 58 48 43 42 40 35 24 22 23 21 20 18 28 51 72 68 58 52 43 37 47 46 37 43 43 50 48
46 51 54 35 34 44 49 64 70 58 62 65 78 78 67 65 64 64 57 51 46 40 31 23 19 19 21 23 31 41 49 54 73 64 56 46 38 37 42 54 57 59 55 88 100
18 23 35 18 20 23 23 72 60 59 63 59 53 39 47 53 49 42 40 38 30 24 17 17 21 20 21 46 56 65 72 62 72 80 68 51 46 43 48 53 63 65 63 56 77
9 10 12 11 11 12 15 39 48 55 55 56 58 40 26 21 16 14 17 18 16 14 11 13 13 23 36 57 96 93 77 80 98 84 88 72 53 60 59 62 63 73 67 56 48
8 8 8 10 11 10 9 16 13 17 20 28 45 49 38 39 30 14 15 15 18 41 52 27 62 61 48 94 97 100 72 83 100 82 87 84 53 77 86 81 76 72 78 72 75
11 13 18 20 18 14 10 10 10 10 13 16 18 20 24 26 27 25 20 24 26 23 46 74 79 66 41 93 95 83 73 77 84 87 72 90 66 99 88 92 100 94 78 72 74
23 21 26 31 32 27 18 17 16 12 11 10 10 15 24 26 29 40 48 38 25 31 34 62 54 47 34 78 82 73 70 91 100 81 87 77 87 100 90 82 83 82 80 76 67
39 31 36 44 37 39 44 31 30 24 19 18 12 8 11 15 68 58 57 71 58 72 88 100 79 34 33 85 88 88 91 91 100 92 95 95 97 93 87 99 100 100 90 92 91
46 39 39 35 35 51 57 53 42 29 29 27 18 11 11 23 38 35 49 48 43 60 66 100 52 50 100 100 100 93 72 79 93 100 96 88 78 82 90 95 95 96 100 96 85
64 56 60 56 67 82 76 64 54 41 34 30 21 13 11 13 50 54 47 61 66 64 100 95 59 75 95 100 100 79 68 87 95 85 93 94 92 86 88 91 90 87 78 66 54